TimeCST,TemperatureF,Dew PointF,Humidity,Sea Level PressureIn,VisibilityMPH,Wind Direction,Wind SpeedMPH,Gust SpeedMPH,PrecipitationIn,Events,Conditions,WindDirDegrees,DateUTC
12:15 AM,37.4,37.4,100,29.95,1.8,Calm,Calm,-,N/A,,Overcast,0,2012-11-07 06:15:00
12:35 AM,39.2,37.4,93,29.95,5.0,SSE,6.9,-,N/A,,Overcast,150,2012-11-07 06:35:00
12:55 AM,39.2,37.4,93,29.96,6.0,SSE,3.5,-,N/A,,Overcast,160,2012-11-07 06:55:00
1:15 AM,39.2,35.6,87,29.96,6.0,South,8.1,-,N/A,,Overcast,170,2012-11-07 07:15:00
1:35 AM,41.0,37.4,87,29.96,6.0,South,8.1,-,N/A,,Overcast,170,2012-11-07 07:35:00
1:55 AM,41.0,35.6,81,29.97,7.0,SSE,10.4,-,N/A,,Overcast,160,2012-11-07 07:55:00
2:15 AM,41.0,35.6,81,29.97,7.0,SSE,10.4,-,N/A,,Overcast,150,2012-11-07 08:15:00
2:55 AM,41.0,35.6,81,29.98,7.0,SSE,9.2,-,N/A,,Overcast,160,2012-11-07 08:55:00
3:15 AM,41.0,35.6,81,29.98,7.0,SSE,9.2,-,N/A,,Overcast,160,2012-11-07 09:15:00
3:35 AM,41.0,35.6,81,29.99,7.0,SSE,6.9,-,N/A,,Overcast,160,2012-11-07 09:35:00
3:55 AM,41.0,37.4,87,29.99,6.0,South,6.9,-,N/A,,Overcast,170,2012-11-07 09:55:00
4:35 AM,41.0,35.6,81,30.01,7.0,SSE,8.1,-,N/A,,Overcast,160,2012-11-07 10:35:00
4:55 AM,41.0,37.4,87,30.01,7.0,South,5.8,-,N/A,,Overcast,170,2012-11-07 10:55:00
5:15 AM,41.0,35.6,81,30.02,7.0,SSE,8.1,-,N/A,,Overcast,160,2012-11-07 11:15:00
5:35 AM,41.0,37.4,87,30.02,7.0,SSE,6.9,-,N/A,,Overcast,150,2012-11-07 11:35:00
5:55 AM,41.0,37.4,87,30.03,7.0,SSE,8.1,-,N/A,,Overcast,160,2012-11-07 11:55:00
6:15 AM,41.0,37.4,87,30.03,6.0,SSE,5.8,-,N/A,,Overcast,160,2012-11-07 12:15:00
6:35 AM,41.0,37.4,87,30.05,6.0,South,4.6,-,N/A,,Overcast,180,2012-11-07 12:35:00
6:55 AM,41.0,37.4,87,30.05,5.0,South,4.6,-,N/A,,Overcast,180,2012-11-07 12:55:00
7:15 AM,41.0,37.4,87,30.06,5.0,South,5.8,-,N/A,,Overcast,170,2012-11-07 13:15:00
7:35 AM,42.8,37.4,81,30.06,4.0,South,4.6,-,N/A,,Overcast,170,2012-11-07 13:35:00
7:55 AM,42.8,37.4,81,30.06,5.0,SSE,5.8,-,N/A,,Overcast,160,2012-11-07 13:55:00
8:15 AM,42.8,37.4,81,30.07,5.0,South,8.1,-,N/A,,Overcast,170,2012-11-07 14:15:00
8:35 AM,42.8,37.4,81,30.08,5.0,South,6.9,-,N/A,,Overcast,190,2012-11-07 14:35:00
8:55 AM,42.8,37.4,81,30.08,5.0,South,5.8,-,N/A,,Overcast,190,2012-11-07 14:55:00
9:15 AM,42.8,37.4,81,30.09,5.0,SSW,8.1,-,N/A,,Overcast,200,2012-11-07 15:15:00
9:35 AM,42.8,37.4,81,30.10,5.0,South,5.8,-,N/A,,Overcast,180,2012-11-07 15:35:00
9:55 AM,42.8,37.4,81,30.10,5.0,South,5.8,-,N/A,,Overcast,190,2012-11-07 15:55:00
10:15 AM,42.8,37.4,81,30.10,6.0,South,8.1,-,N/A,,Overcast,190,2012-11-07 16:15:00
10:35 AM,42.8,37.4,81,30.10,6.0,South,10.4,-,N/A,,Overcast,180,2012-11-07 16:35:00
10:55 AM,42.8,37.4,81,30.10,6.0,South,6.9,-,N/A,,Overcast,180,2012-11-07 16:55:00
11:15 AM,42.8,37.4,81,30.10,7.0,South,8.1,-,N/A,,Overcast,180,2012-11-07 17:15:00
11:35 AM,42.8,37.4,81,30.10,7.0,SSW,8.1,-,N/A,,Overcast,210,2012-11-07 17:35:00
11:55 AM,41.0,37.4,87,30.10,3.0,South,4.6,-,N/A,,Overcast,190,2012-11-07 17:55:00
12:15 PM,41.0,39.2,93,30.10,1.5,WSW,4.6,-,N/A,,Overcast,250,2012-11-07 18:15:00
12:35 PM,39.2,37.4,93,30.09,1.2,Calm,Calm,-,0.01,,Overcast,0,2012-11-07 18:35:00
12:55 PM,41.0,39.2,93,30.09,1.2,Calm,Calm,-,0.01,,Overcast,0,2012-11-07 18:55:00
1:15 PM,41.0,39.2,93,30.09,1.2,West,4.6,-,N/A,,Overcast,270,2012-11-07 19:15:00
1:35 PM,39.2,37.4,93,30.10,2.0,WNW,3.5,-,N/A,,Overcast,290,2012-11-07 19:35:00
1:55 PM,39.2,37.4,93,30.09,2.5,Calm,Calm,-,N/A,,Overcast,0,2012-11-07 19:55:00
2:15 PM,41.0,39.2,93,30.09,4.0,SSW,4.6,-,N/A,,Overcast,210,2012-11-07 20:15:00
2:35 PM,41.0,39.2,93,30.09,5.0,South,4.6,-,N/A,,Overcast,190,2012-11-07 20:35:00
2:55 PM,41.0,39.2,93,30.10,5.0,Calm,Calm,-,N/A,,Overcast,0,2012-11-07 20:55:00
3:15 PM,41.0,39.2,93,30.10,4.0,Calm,Calm,-,N/A,,Overcast,0,2012-11-07 21:15:00
3:35 PM,39.2,37.4,93,30.10,4.0,South,3.5,-,N/A,,Overcast,190,2012-11-07 21:35:00
3:55 PM,41.0,39.2,93,30.10,4.0,Calm,Calm,-,N/A,,Overcast,0,2012-11-07 21:55:00
4:15 PM,41.0,39.2,93,30.11,3.0,SSW,3.5,-,N/A,,Overcast,210,2012-11-07 22:15:00
4:35 PM,41.0,39.2,93,30.11,3.0,South,3.5,-,N/A,,Overcast,180,2012-11-07 22:35:00
4:55 PM,39.2,39.2,100,30.11,4.0,Calm,Calm,-,N/A,,Overcast,0,2012-11-07 22:55:00
5:15 PM,37.4,37.4,100,30.12,3.0,WSW,3.5,-,N/A,,Overcast,240,2012-11-07 23:15:00
5:35 PM,41.0,39.2,93,30.12,3.0,Calm,Calm,-,N/A,,Overcast,0,2012-11-07 23:35:00
5:55 PM,39.2,39.2,100,30.12,3.0,Calm,Calm,-,N/A,,Overcast,0,2012-11-07 23:55:00
6:15 PM,39.2,39.2,100,30.13,3.0,WSW,3.5,-,N/A,,Overcast,240,2012-11-08 00:15:00
6:35 PM,39.2,39.2,100,30.13,3.0,Calm,Calm,-,N/A,,Overcast,0,2012-11-08 00:35:00
6:55 PM,39.2,39.2,100,30.13,3.0,WSW,3.5,-,N/A,,Overcast,250,2012-11-08 00:55:00
7:15 PM,39.2,37.4,93,30.13,3.0,WSW,3.5,-,N/A,,Overcast,250,2012-11-08 01:15:00
7:35 PM,39.2,37.4,93,30.13,3.0,Calm,Calm,-,N/A,,Overcast,0,2012-11-08 01:35:00
7:55 PM,39.2,37.4,93,30.13,3.0,Calm,Calm,-,N/A,,Overcast,0,2012-11-08 01:55:00
8:15 PM,39.2,37.4,93,30.14,3.0,Calm,Calm,-,N/A,,Overcast,0,2012-11-08 02:15:00
8:35 PM,39.2,37.4,93,30.14,3.0,Calm,Calm,-,N/A,,Overcast,0,2012-11-08 02:35:00
8:55 PM,39.2,37.4,93,30.14,3.0,WSW,3.5,-,N/A,,Overcast,250,2012-11-08 02:55:00
9:15 PM,39.2,37.4,93,30.14,2.5,WSW,3.5,-,N/A,,Overcast,240,2012-11-08 03:15:00
9:35 PM,37.4,35.6,93,30.13,3.0,WSW,4.6,-,N/A,,Overcast,240,2012-11-08 03:35:00
9:55 PM,39.2,37.4,93,30.13,2.5,WSW,3.5,-,N/A,,Overcast,240,2012-11-08 03:55:00
10:15 PM,39.2,37.4,93,30.13,2.5,WSW,3.5,-,N/A,,Overcast,250,2012-11-08 04:15:00
10:35 PM,37.4,35.6,93,30.14,3.0,WSW,4.6,-,N/A,,Overcast,250,2012-11-08 04:35:00
10:55 PM,37.4,37.4,100,30.13,3.0,West,3.5,-,N/A,,Overcast,270,2012-11-08 04:55:00
11:15 PM,37.4,37.4,100,30.13,3.0,WSW,3.5,-,N/A,,Overcast,250,2012-11-08 05:15:00
11:35 PM,39.2,37.4,93,30.13,3.0,WSW,3.5,-,N/A,,Overcast,250,2012-11-08 05:35:00
11:55 PM,37.4,37.4,100,30.12,3.0,WSW,3.5,-,N/A,,Overcast,240,2012-11-08 05:55:00